TIME,DELAY(SENSOR),PRES,OXYGEN,RAWTEMP,T(OPTODE),TCPHASE,FLUOR,BETA(BETA700),BETA(BETA412),BETA(BETA440),CDOM,C(CSC),ED(ED411.90),ED(ED443.80),ED(ED489.40),ED(ED554.70),LU(LU412.20),LU(LU443.80),LU(LU489.40),LU(LU555.00),COMP,TILTX,TILTY,CHECK
1375998628,5808,875.1699829101562000,159.9291992187500000,414.5989074707031000,10.1572399139404300,39.2151298522949200,70,963,58,58,63,10479,2146959625,2147519881,2147288484,2147495899,2147085568,2146931136,2147699510,2147125257,1899,-1,8,41028
1376002224,5808,987.3099975585938000,161.9680938720703000,486.2066040039062500,7.9567990303039550,40.2546806335449200,71,980,58,56,63,10479,2146968036,2147518445,2147294720,2147506898,2147086921,2146924736,2147714020,2147121161,3338,-1,8,14743
1376005824,5803,1004.6599731445312000,147.3215026855468800,498.6361999511719000,7.5717959403991700,41.6132698059082000,71,987,57,56,63,10481,2146967058,2147517065,2147296338,2147509202,2147085110,2146921517,2147712758,2147121170,2971,-1,8,34694
1376009424,5806,1006.5200195312500000,160.8970031738281200,499.9042053222656000,7.5324649810791020,40.5700988769531250,70,995,57,57,63,10474,2146966656,2147521362,2147296320,2147507510,2147083794,2146919789,2147715474,2147124818,2875,-1,8,26845
1376013024,5807,1008.0800170898438000,161.7698059082031200,500.1069946289062500,7.5261740684509280,40.5081901550293000,71,993,56,57,63,10473,2146965732,2147520475,2147297600,2147508278,2147085229,2146920484,2147714916,2147120091,1006,-1,8,20383
1376016624,5804,1006.9699707031250000,168.5628051757812500,502.4053955078125000,7.4548487663269040,40.0456809997558600,71,996,58,57,63,10472,2146969563,2147519177,2147296201,2147510518,2147086893,2146921810,2147717686,2147121938,3515,-1,8,37091
1376020224,5808,1008.5599975585938000,155.5525970458984400,502.8931884765625000,7.4397058486938480,41.0310592651367200,71,997,58,56,63,10473,2146965156,2147518464,2147295405,2147510061,2147087003,2146924918,2147715684,2147121700,244,-1,8,53309
1376023824,5806,1009.9199829101562000,167.3657989501953000,503.8916931152344000,7.4087061882019040,40.1580810546875000,72,1002,57,57,63,10473,2146961398,2147518811,2147295652,2147506532,2147088384,2146920420,2147717650,2147121216,3408,-1,8,20892
1376027424,5806,1006.3699951171875000,180.0655975341797000,505.2663879394531000,7.3660140037536620,39.2860908508300800,71,1006,57,57,64,10466,2146962660,2147520054,2147298733,2147511232,2147084050,2146925522,2147713462,2147124553,926,-1,8,12444
1376031024,5803,1004.5100097656250000,181.7026062011718800,506.7311096191406000,7.3205142021179200,39.1990585327148440,72,1013,58,55,62,10467,2146966098,2147518400,2147296246,2147505517,2147088978,2146921572,2147714742,2147119872,3356,-1,8,13047
1376034624,5806,1004.9500122070312000,175.2864074707031200,507.8982849121094000,7.2842459678649900,39.6625518798828100,71,1016,58,56,62,10469,2146961709,2147519232,2147296283,2147508608,2147090084,2146922587,2147714532,2147122002,3546,-1,8,21608
1376038224,5809,1005.6699829101562000,169.0946044921875000,508.1466064453125000,7.2765278816223145,40.1068496704101560,72,1019,57,55,62,10469,2146963904,2147521755,2147294125,2147508480,2147088475,2146920036,2147720292,2147122075,3596,-1,8,579
1376041824,5806,1005.7500000000000000,169.8600006103515600,508.5054931640625000,7.2653741836547850,40.0579109191894500,72,1026,57,56,63,10438,2146965760,2147517869,2147298038,2147505764,2147086665,2146919323,2147718637,2147124507,3459,-1,8,26806
1376045424,5808,1002.4799804687500000,183.5285949707031200,509.2442016601562500,7.2424139976501465,39.1211204528808600,72,1026,56,55,62,10457,2146964461,2147517650,2147296347,2147507675,2147086427,2146916178,2147717366,2147121362,398,-1,8,54845
1376049024,5807,1006.3900146484375000,172.2021942138672000,509.4064025878906000,7.2373709678649900,39.9053611755371100,73,1031,58,56,63,10450,2146967058,2147519396,2147296740,2147509750,2147086829,2146918098,2147720621,2147120064,154,0,8,7936
1376052624,5805,1011.5100097656250000,179.9869995117187500,508.0614013671875000,7.2791790962219240,39.3397293090820300,72,1032,55,56,62,10450,2146965220,2147519186,2147294317,2147509723,2147085705,2146917284,2147716708,2147122825,3422,-1,8,19316
1376056224,5809,1012.2299804687500000,174.6781005859375000,508.0046081542969000,7.2809419631958010,39.7058296203613300,73,1033,57,57,62,10449,2146965586,2147520649,2147296649,2147509174,2147087762,2146922541,2147719744,2147121362,3587,-1,8,3520
1376059824,5807,1011.8300170898438000,179.2290039062500000,507.8147888183594000,7.2868409156799320,39.3874282836914060,73,1037,56,56,63,10449,2146964854,2147518308,2147295387,2147506880,2147089170,2146921700,2147718738,2147120667,3230,0,8,45952
1376063424,5807,1012.9899902343750000,162.6316070556640600,507.7441101074219000,7.2890381813049320,40.5754508972168000,73,1042,56,55,63,10446,2146968448,2147521682,2147297764,2147509906,2147086372,2146923044,2147715794,2147123538,3529,-1,8,50065
1376067024,5806,1018.0800170898438000,187.7355041503906200,505.4421997070312500,7.3605561256408690,38.7743415832519500,72,1042,56,55,63,10446,2146963392,2147519853,2147295396,2147509924,2147089965,2146921042,2147714029,2147121033,3432,-1,8,54398
1376070624,5810,1016.1300048828125000,183.2162933349609400,505.7065124511719000,7.3523468971252440,39.0799102783203100,72,1043,57,56,63,10445,2146965714,2147520329,2147292416,2147508342,2147084690,2146926537,2147715209,2147121298,10,-1,8,16973
1376074224,5805,1017.1799926757812000,184.5440063476562500,505.5014953613281000,7.3587141036987305,38.9866790771484400,73,1045,58,56,63,10436,2146965632,2147517760,2147293504,2147511021,2147084553,2146924022,2147719268,2147121490,102,-1,8,37806
1376077824,5807,1013.9299926757812000,166.5997924804687500,507.5481872558594000,7.2951269149780270,40.2781295776367200,74,1047,57,56,64,10441,2146966637,2147517531,2147298294,2147508086,2147086592,2146922678,2147715977,2147122834,3560,-1,8,21549
1376081424,5807,1009.1300048828125000,176.0086975097656200,510.0585937500000000,7.2170929908752440,39.6490097045898440,74,1050,57,56,64,10439,2146965321,2147519707,2147299245,2147510710,2147087360,2146924864,2147721069,2147121069,565,-1,8,35272
1376085024,5806,1009.5499877929688000,180.2174072265625000,510.2637023925781000,7.2107181549072270,39.3625907897949200,73,1050,58,56,63,10441,2146965430,2147517558,2147299227,2147510994,2147084205,2146922925,2147715721,2147122724,2450,-1,8,33748
1376088624,5807,1013.6300048828125000,180.9105987548828000,510.4219055175781000,7.2057971954345700,39.3178710937500000,73,1073,57,56,63,10437,2146965851,2147517266,2147296566,2147509092,2147084635,2146917074,2147716617,2147121389,111,-1,8,58265
1376092224,5804,1016.5399780273438000,193.7272949218750000,510.4161071777344000,7.2059769630432130,38.4744186401367200,73,1055,57,57,63,10437,2146964434,2147518610,2147294893,2147511926,2147087094,2146918454,2147719652,2147122029,1995,-1,8,615
1376095824,5804,1011.7500000000000000,189.2639007568359400,510.3774108886719000,7.2071819305419920,38.7620811462402340,73,1059,57,56,63,10436,2146966418,2147519917,2147292617,2147510528,2147085010,2146924324,2147718208,2147121819,3520,-1,8,50462
1376099424,5806,1010.2299804687500000,183.4994049072265600,510.6339111328125000,7.1992068290710450,39.1472816467285160,74,1060,57,58,63,10435,2146964269,2147519021,2147296146,2147510034,2147086710,2146920475,2147717778,2147120621,3329,-1,8,58851
1376103024,5807,1011.5399780273438000,193.0621032714843800,510.7467956542969000,7.1956958770751950,38.5226707458496100,73,1063,56,56,62,10438,2146965449,2147517814,2147295744,2147510528,2147086363,2146919588,2147722230,2147120219,41,-1,8,46864
1376106624,5806,1012.0800170898438000,195.4306945800781200,511.3698120117187500,7.1763200759887695,38.3833198547363300,73,1068,57,55,64,10435,2146965952,2147516562,2147296813,2147507328,2147088356,2146922212,2147718116,2147124370,170,-1,8,54283
1376110224,5806,1007.5300292968750000,194.8762054443359400,513.0231933593750000,7.1248869895935060,38.4478187561035160,75,1071,56,57,63,10437,2146962185,2147517504,2147300269,2147506505,2147085824,2146922276,2147714313,2147123428,1161,-1,8,3111
1376113824,5806,1010.8499755859375000,196.3121032714843800,512.8687133789062000,7.1296930313110350,38.3543510437011700,74,1069,56,56,62,10434,2146966784,2147516754,2147298761,2147509961,2147086089,2146925229,2147715721,2147121024,1492,-1,8,29012
1376117424,5807,1010.5300292968750000,197.2492980957031200,513.5242919921875000,7.1092948913574220,38.3075218200683600,74,1072,57,57,63,10427,2146964379,2147514797,2147299446,2147510162,2147085485,2146925705,2147717238,2147120164,2061,-1,8,53148
1376121024,5806,1009.5800170898438000,187.4990997314453000,513.2285156250000000,7.1185011863708500,38.9264793395996100,74,1073,57,56,63,10427,2146966610,2147513910,2147300388,2147509302,2147089206,2146917997,2147715620,2147122989,556,-1,8,37955
1376124624,5806,1013.8200073242188000,186.6345977783203000,513.0667724609375000,7.1235289573669430,38.9817390441894500,74,1075,57,56,63,10428,2146967652,2147518729,2147295579,2147510171,2147084370,2146913435,2147719588,2147121910,1078,-1,8,11002
1376128224,5807,1014.6199951171875000,197.8397979736328000,511.7719116210937500,7.1638150215148930,38.2390785217285160,74,1079,56,55,63,10424,2146963593,2147518454,2147297133,2147509760,2147085641,2146919085,2147715995,2147121526,575,-1,8,60747
1376131824,5806,1014.4899902343750000,195.2644042968750000,510.8312072753906000,7.1930689811706540,38.3843612670898440,73,1080,56,56,63,10424,2146967104,2147518089,2147296832,2147508086,2147086546,2146920576,2147714806,2147122258,3396,-1,8,47750
1376135424,5805,1010.3099975585938000,175.0110015869140600,511.7896118164062500,7.1632609367370605,39.7500991821289060,75,1084,58,58,63,10421,2146968393,2147518381,2147295990,2147511542,2147082861,2146923328,2147718674,2147121709,3253,-1,8,46527
1376139024,5805,1013.8599853515625000,197.6510009765625000,512.5718994140625000,7.1389269828796390,38.2657394409179700,74,1084,55,56,62,10414,2146966976,2147517321,2147297819,2147510674,2147084598,2146921115,2147715821,2147117878,2784,-1,8,20103
1376141455,5806,1017.9400024414062000,193.9609069824218800,512.3909912109375000,7.1445560455322270,38.4943504333496100,74,1089,57,56,62,10438,2146966902,2147517952,2147299648,2147509394,2147089362,2146927442,2147717723,2147119899,2801,-1,8,17203
